Probability
0 0 0 0 0 0 0 0 0 0 0 0 0 1 2 4 5 6 7 8 9 13 18 19 17 17 14 11 10 8 5 4 5 5 3 1 2 3 2 1 0 0 1 0
0 0 0 0 0 0 0 0 0 0 0 0 0 0 1 1 2 3 5 8 11 16 22 22 20 18 16 12 10 9 6 5 6 5 3 1 2 3 2 1 0 1 1 1
0 0 0 0 0 0 0 0 0 0 0 0 0 0 0 0 1 2 4 8 14 21 24 24 21 18 14 11 9 8 7 7 6 5 3 1 1 2 1 0 0 1 1 1
0 0 0 0 0 0 0 0 0 0 0 0 0 0 0 0 1 2 5 11 18 22 23 21 19 13 9 8 7 6 7 7 6 5 4 2 1 1 0 0 0 0 0 0
0 0 0 0 0 0 0 0 0 0 0 0 0 0 0 0 0 1 4 11 17 21 20 18 14 10 7 6 5 4 5 5 5 4 4 3 3 2 1 0 0 0 0 0
0 0 0 0 0 0 0 0 0 0 0 0 0 0 0 0 0 0 2 7 14 18 17 15 11 8 8 7 5 4 4 4 4 3 3 4 5 5 3 1 0 0 0 0
0 0 0 0 0 0 0 0 0 0 0 0 0 0 0 0 0 1 3 6 12 16 16 12 9 7 7 8 7 6 6 6 5 4 3 4 6 6 4 1 0 0 0 0
0 0 0 0 0 0 0 0 0 0 0 0 0 0 0 0 1 2 4 7 11 14 14 10 5 4 5 6 8 8 7 6 6 5 4 5 6 6 4 1 0 0 0 0
0 0 0 0 0 0 0 0 0 0 0 0 0 0 0 0 2 3 5 7 9 12 12 8 3 1 2 3 6 7 5 4 4 5 5 5 5 5 3 1 0 0 0 0
0 0 0 0 0 0 0 0 0 0 0 0 0 0 0 0 2 3 4 5 6 9 10 6 2 1 1 2 3 4 2 1 2 3 4 4 4 4 3 1 0 0 0 0
0 0 0 0 0 0 0 0 0 0 0 0 0 0 0 0 2 2 2 2 4 6 6 3 1 0 0 1 2 2 1 0 1 1 2 2 2 2 2 1 0 0 0 0
0 0 0 0 0 0 0 0 0 0 0 0 0 0 0 0 1 1 1 1 2 2 2 1 1 1 2 2 3 2 1 0 0 0 1 1 0 1 1 0 0 0 0 0
0 0 0 0 0 0 0 0 0 0 0 0 0 0 0 0 0 0 1 1 2 1 1 2 2 3 3 3 3 2 1 0 0 0 0 0 0 0 0 0 0 0 0 0
0 0 0 0 0 0 0 0 0 0 0 0 0 0 0 0 0 0 1 2 3 2 2 3 3 3 3 3 2 1 0 0 0 0 0 0 0 0 0 0 0 0 0 0
0 0 0 1 1 1 0 0 0 0 0 0 0 0 0 0 0 0 1 3 3 3 3 3 3 3 2 1 1 0 0 0 0 0 0 0 0 0 0 0 0 0 0 0
0 0 0 1 2 1 0 0 0 0 0 0 0 0 0 1 2 1 1 3 4 5 6 6 5 3 2 2 1 1 1 1 1 1 1 0 1 1 0 0 0 0 0 0
0 0 0 1 1 1 0 0 0 0 0 0 0 0 1 4 5 3 2 3 6 8 11 11 7 3 2 3 3 3 3 2 2 2 2 1 1 1 0 0 0 1 0 0
0 0 0 0 0 0 0 0 0 0 0 1 1 1 2 5 7 5 3 4 7 10 14 14 9 4 3 5 5 4 4 3 3 3 3 2 1 1 0 0 0 0 0 0
0 0 0 0 0 0 0 0 0 0 0 1 2 2 3 6 8 7 6 6 7 10 12 11 7 5 6 7 7 5 4 4 4 3 3 3 1 1 1 1 0 0 0 0
0 0 0 0 0 0 0 0 0 0 0 1 1 2 5 8 8 8 8 7 7 7 7 8 7 7 9 9 7 5 4 4 3 3 3 3 3 2 2 2 1 0 0 0
0 0 0 0 0 0 0 0 0 0 0 0 0 2 6 7 7 6 7 6 5 4 4 5 6 7 8 9 7 5 4 3 3 3 3 3 3 3 3 3 2 1 1 1
0 0 0 0 0 0 0 0 0 0 2 2 1 2 4 6 6 6 7 6 4 4 4 4 6 8 7 7 7 5 3 3 3 4 4 3 2 2 3 3 3 3 2 2
0 0 0 0 0 0 0 0 0 1 4 5 4 4 5 6 7 8 8 8 6 6 5 6 8 8 6 5 5 5 4 3 4 4 4 3 2 2 3 3 3 3 3 3
0 0 0 0 1 1 1 0 0 2 5 6 6 6 7 9 8 8 9 9 8 7 8 9 10 9 7 5 4 4 3 3 3 4 4 3 3 3 3 3 3 3 3 3
0 0 0 0 1 2 2 1 0 2 5 7 8 8 9 10 9 9 9 9 9 8 9 10 10 8 6 4 3 3 3 3 3 3 3 4 4 4 3 3 3 2 2 2
0 0 0 0 1 2 2 1 0 2 5 8 9 8 9 9 9 9 9 8 8 8 8 8 8 6 4 4 3 3 3 3 3 3 3 4 5 4 3 3 2 1 1 1
Wind_Speed
3 4 3 5 5 4 2 1 5 6 4 1 2 3 3 3 3 4 4 5 5 5 3 4 6 7 8 8 9 9 9 8 7 5 5 4 4 4 3 4 5 5 5 5
4 3 6 4 3 2 1 2 4 5 3 1 2 3 2 1 4 5 6 7 6 4 4 5 5 6 8 9 9 9 8 8 8 6 4 4 4 3 3 3 4 5 5 5
6 5 3 5 3 2 2 4 4 3 4 5 3 6 4 2 1 2 3 4 5 6 6 6 6 6 6 7 8 8 8 8 7 6 4 3 2 2 2 2 3 4 5 6
4 5 3 3 4 5 4 5 5 2 1 3 2 3 6 3 3 3 4 4 6 6 5 5 6 5 6 6 6 6 7 7 7 7 6 7 5 4 4 3 3 4 5 5
6 3 4 5 6 7 6 1 2 1 2 1 3 1 8 2 4 5 5 5 5 6 6 6 6 6 6 6 6 6 6 6 6 7 7 6 4 3 2 2 3 3 3 4
5 3 4 6 4 6 3 5 6 6 5 2 2 1 7 4 5 4 3 5 6 7 6 6 5 4 4 5 6 6 6 6 6 7 6 7 6 5 4 4 4 3 2 2
2 3 4 4 1 1 4 6 5 5 4 4 3 2 9 6 5 5 5 5 6 6 6 7 7 6 4 5 6 6 7 6 6 7 6 6 6 6 6 5 5 4 3 3
3 5 4 5 7 6 5 9 8 5 4 5 3 5 8 5 4 2 3 4 6 6 6 6 7 7 6 6 6 6 6 6 6 6 6 5 6 5 4 5 5 5 4 4
7 6 5 4 5 10 7 4 7 8 3 1 5 7 8 2 2 2 3 5 6 6 5 5 5 6 6 6 6 6 6 5 6 6 5 5 5 5 5 5 4 3 3 3
9 3 4 2 4 4 6 9 6 7 6 2 5 5 5 4 2 2 3 5 5 5 5 5 4 4 5 5 5 5 5 5 5 5 5 4 4 4 4 4 4 4 4 3
7 5 3 3 3 6 5 5 6 6 6 7 3 8 7 7 6 6 6 6 6 7 6 6 5 4 4 4 4 4 4 4 4 4 4 4 4 4 4 4 4 3 3 3
6 6 3 6 4 3 5 8 9 7 4 5 4 9 5 5 5 4 5 5 5 5 6 6 5 5 5 5 4 4 4 4 4 4 4 4 4 4 4 3 3 3 3 3
7 7 2 6 5 1 3 4 5 7 7 5 5 8 3 1 2 3 4 4 5 5 5 5 5 5 5 5 5 4 4 4 3 3 4 4 4 4 4 3 3 3 3 3
8 6 8 10 8 5 3 4 5 7 6 5 7 7 5 4 4 4 4 4 5 5 6 6 5 5 5 5 5 4 4 3 4 4 4 4 4 4 4 3 3 3 3 3
6 4 4 4 3 3 3 4 6 5 8 9 8 8 9 8 7 6 5 5 5 5 6 7 6 5 5 5 4 4 4 4 4 5 5 4 4 4 4 4 3 3 3 3
4 4 2 0 0 2 2 2 5 4 4 4 3 6 7 3 2 3 5 7 7 7 7 7 6 6 6 6 6 5 5 4 5 5 5 5 5 5 4 4 4 5 4 4
3 5 4 1 1 3 1 3 4 3 3 6 7 8 3 3 5 7 8 8 8 8 7 7 6 6 6 6 6 6 6 5 6 5 5 5 5 5 5 5 5 5 5 5
5 5 4 3 3 3 6 2 2 3 2 3 4 4 4 6 4 2 3 6 6 5 6 5 5 5 5 5 5 6 6 6 6 6 6 5 6 6 5 5 5 5 5 5
4 7 5 4 3 2 4 1 1 2 2 2 3 2 1 3 4 2 1 2 4 4 4 4 4 5 5 6 6 7 6 6 6 6 5 5 6 6 6 6 5 5 5 5
5 5 6 5 5 6 6 3 2 2 3 2 2 3 4 5 3 3 1 3 4 4 4 4 5 6 6 6 7 8 7 6 6 6 6 6 6 6 6 6 5 5 6 6
4 4 4 4 3 5 4 4 1 4 6 3 2 4 5 4 4 3 4 5 5 5 4 5 5 5 5 6 7 7 6 5 5 6 7 7 6 6 6 6 5 6 6 7
3 4 3 4 3 6 3 1 3 5 2 1 1 2 4 4 4 5 6 6 5 5 5 6 6 5 4 6 8 7 6 5 6 7 7 7 6 6 6 7 6 6 6 7
2 4 4 5 6 4 2 2 3 2 1 1 1 2 5 5 4 5 5 5 5 5 5 5 7 6 5 4 6 8 6 6 7 8 8 7 7 6 6 7 6 5 5 5
1 1 2 1 3 2 3 3 3 1 1 0 2 3 5 6 6 6 5 5 5 5 5 5 7 6 5 5 5 5 6 6 8 8 7 7 7 7 6 5 4 4 4 4
2 1 1 1 3 2 3 3 3 2 2 3 3 3 5 7 7 6 5 5 5 5 5 5 5 6 5 5 5 5 5 7 8 8 7 7 7 7 7 6 5 4 3 3
3 4 4 5 5 3 3 3 2 2 2 2 4 4 4 5 6 6 5 5 5 5 5 5 5 5 5 6 5 5 5 6 8 7 6 5 6 6 6 6 7 13 10 11
Wind_Direction
89 86 189 205 185 177 165 275 289 278 295 328 288 284 281 210 182 190 187 188 197 199 184 158 166 166 164 164 168 174 172 170 163 163 167 169 180 186 193 201 195 188 184 177
56 256 224 183 166 168 199 298 293 303 349 29 335 321 305 198 204 201 195 194 190 176 155 151 151 160 168 172 173 174 177 173 173 176 169 169 168 182 189 191 187 186 184 178
173 227 172 156 177 198 243 218 241 265 346 19 32 338 317 299 249 215 201 185 177 180 175 164 160 165 163 169 177 180 178 176 178 172 153 136 123 123 156 180 187 188 182 180
213 240 191 186 206 173 259 232 213 225 42 322 35 300 290 294 292 248 221 190 179 175 169 165 165 170 174 173 169 174 174 176 178 173 171 170 177 182 190 183 182 180 180 179
222 204 178 205 213 175 218 231 150 142 141 19 11 165 285 320 275 257 231 203 181 172 171 169 174 180 175 166 167 170 167 174 176 179 181 180 181 176 158 159 167 177 181 183
223 220 197 205 200 183 169 70 52 47 67 18 292 189 279 257 242 261 232 196 178 172 169 169 161 153 160 157 162 164 170 177 175 177 179 181 179 168 162 172 181 183 180 189
276 266 233 185 150 52 112 90 35 6 17 258 285 238 253 262 256 236 224 195 170 165 164 159 153 154 169 172 168 168 173 180 177 178 183 184 181 176 180 184 189 184 186 197
188 276 241 193 179 176 166 139 154 186 212 274 316 250 260 276 283 235 172 154 149 155 163 167 166 169 176 179 172 172 179 182 176 181 188 186 182 180 183 184 182 189 196 203
175 248 278 233 189 146 136 158 153 126 144 323 293 290 303 343 24 76 126 138 151 158 162 170 167 164 166 171 175 177 176 176 177 181 181 183 186 183 183 181 180 187 193 198
155 214 288 303 94 47 136 140 107 116 139 228 294 286 263 269 247 189 168 165 162 157 155 161 162 163 168 169 163 159 166 174 175 174 181 185 184 183 177 172 182 188 190 188
142 164 294 359 164 167 116 103 104 109 143 151 227 269 233 219 210 199 197 184 175 169 162 161 158 156 155 146 150 158 162 162 166 173 176 174 169 163 160 166 179 180 178 175
151 131 226 263 264 180 159 160 145 146 187 164 171 264 276 222 217 202 192 182 174 167 158 154 151 148 149 150 153 160 164 170 176 172 163 167 158 152 153 164 170 165 168 164
140 124 104 336 339 73 147 153 144 121 116 148 167 260 306 287 218 205 188 179 172 162 153 146 148 155 161 161 161 164 167 171 167 160 157 153 152 152 157 163 156 151 154 150
120 121 159 189 210 190 165 156 148 125 140 184 214 242 280 255 229 221 206 184 170 166 162 158 164 169 172 164 159 158 156 153 148 144 145 146 150 148 146 137 130 136 140 141
110 142 190 214 208 165 170 172 166 168 176 178 219 220 242 229 217 210 196 171 160 165 172 174 175 175 167 155 149 147 146 141 140 136 137 141 132 123 119 114 111 110 110 116
88 132 135 78 146 160 150 180 174 182 172 193 201 245 245 230 165 178 185 179 179 180 181 182 178 174 170 165 156 150 149 145 139 137 134 122 116 113 110 107 101 96 90 89
98 115 110 206 280 96 224 218 178 177 185 174 201 231 210 173 187 195 194 189 191 187 181 181 183 183 176 168 156 157 155 143 138 136 130 124 124 120 117 115 106 101 95 90
131 110 117 126 100 185 239 280 174 158 205 208 231 237 201 199 189 179 189 191 192 181 176 177 171 167 154 146 139 138 135 134 132 130 125 122 122 118 113 107 102 98 94 93
143 132 117 119 144 246 288 296 133 159 259 246 224 235 159 124 81 18 327 171 171 161 156 158 158 151 140 141 139 133 130 128 127 128 125 124 125 123 118 112 106 99 99 93
60 92 113 125 142 205 236 272 283 128 275 278 195 183 158 128 135 245 170 110 109 110 121 130 128 123 130 137 136 133 134 134 138 137 129 123 122 124 122 118 110 100 98 95
48 57 109 139 171 244 255 288 60 158 234 261 205 188 166 175 190 166 109 98 101 105 106 109 112 122 133 132 127 131 132 139 136 124 117 116 118 120 117 111 105 104 102 96
158 138 153 136 158 238 293 49 173 218 266 261 201 174 150 133 116 109 104 105 101 98 98 105 107 104 112 130 133 133 136 132 122 118 115 114 114 114 113 111 105 103 107 105
178 184 178 182 204 247 289 252 270 247 245 259 159 136 135 131 126 114 108 107 102 100 99 103 112 106 96 108 130 136 136 133 127 120 116 112 108 105 111 116 116 110 106 109
291 132 131 274 282 295 314 314 320 312 241 239 135 131 133 133 127 114 108 102 101 102 105 107 110 111 103 96 101 117 128 130 126 121 117 115 112 104 97 95 102 110 115 119
249 136 114 272 277 324 334 335 334 359 49 87 94 98 126 128 126 123 118 114 107 101 100 106 113 116 111 105 101 105 117 124 123 120 118 116 111 110 99 85 71 87 78 117
217 181 176 218 227 198 249 297 333 29 55 101 103 87 94 116 122 116 110 104 101 97 95 97 102 109 111 112 106 103 111 123 126 123 120 118 116 112 111 107 83 60 70 77